Tracking 18844 objects as of 21-Nov-2017
HD Live streaming from Space Station
objects crossing your sky now

FENGYUN 1C DEB

Track FENGYUN 1C DEB now!
10-day predictions


NORAD ID: 39540
Int'l Code: 1999-025EWH
Perigee: 834.5 km
Apogee: 1,517.0 km
Inclination: 106.2 °
Period: 108.7 minutes
Semi major axis: 7546 km
RCS: Unknown
Launch date: May 10, 1999
Source: People's Republic of China (PRC)
Launch site: Taiyaun Space Center, China (TSC)

Note: This is SATELLITE DEBRIS
aabbcc
Your satellite tracking list
Your tracking list is empty




NASA's NSSDC Master Catalog

Two Line Element Set (TLE):
1 39540U 99025EWH 17318.18378685  .00000810  00000-0  12151-2 0  9993
2 39540 106.1941 303.7721 0452196 306.1345 121.2765 13.24228112299344
Source of the keplerian elements: AFSPC